Objednávky za rok 2015

január február marec apríl máj jún júl august september október november december

Číslo Dátum vyhotovenia Názov a adresa dodávateľa IČO Popis plnenia Odhadovaná suma bez DPH Zmluva ak faktúra súvisí so  zmluvou
10095 05.10.2015 G.P.S. s.r.o. Zvolen 36639231 zakreslenie pozemkov 300,00  nie
10096 05.10.2015 Rema Tip Top. S.r.o., L.Vieska 31621643 lepidlo, tvrdidlo, páska nábehová 534,64  nie
10097 05.10.2015 Zvarmat, s.r.o.,Brezno 36622567 drôt zvárací OK Autrod 88,92  nie
10098 05.10.2015 Technik, s.r.o., Zvolen  47531711 sanita 172,38  nie
10099 12.10.2015 NCH Slovakia, s.r.o., Bratislava 34096043 Dc Red Drain, Brex 787,00  nie
10100 12.10.2015 S Armat, s.r.o., Šaľa 33893101 oprava ventilu 3 346,00  nie
10101 12.10.2015 Beličková,s.r.o., Zvolen 45902836 striebrenka, štetce, farba.... 70,31  nie
10102 13.10.2015 Smart Computer, s.r.o., Zvolen  31629881 USB, myš, kábel audio, reporodukt. 36,86  nie
10103 13.10.2015 Tempest, s.r.o., Bratislava 31326650 tachografová karta 52,50  nie
10104 13.10.2015 NCH Slovakia, s.r.o., Bratislava 34096043 EPX 70 3 256,00  nie
10105 13.10.2015 Imet Ake, s.r.o., Bratislava 31341870 ložiská, guferá 196,40  nie
10106 13.10.2015 P.Ujhely, Štefanov 30095417 servisná prehliadka K 6 268,00  nie
10107 13.10.2015 ŽOS Zvolen 31615783 oprava chladiča 150,00  nie
10108 13.10.2015 DKC, s.r.o., Zvolen  31571727 nafta motorová -X/2015 9 350,00  áno
10109 14.10.2015 Osko, a.s., Ban.Bystrica 36044717 elektroinštalčný materiál  128,00  nie
10110 14.10.2015 Mogul Slovakia, s.r.o., Hr. p/Vr. 36222992 olej turbínový 772,20  nie
10111 14.10.2015 Technik, s.r.o., Zvolen  47531711 vodoinštalčný materiál 64,16  nie
10112 14.10.2015 Narimex, s.r.o., Bratislava 679976 kotúče rezné, brúsne, náradie 288,01  nie
10113 14.10.2015 NCH Slovakia, s.r.o., Bratislava 34096043 mazivo LubraK CC 198,00  nie
10114 15.10.2015 Chiva, s.r.o., Zvolen  46472762 kolená varné, ventil navarov. 1 203,00  nie
10115 15.10.2015 BVH, s.r.o., Prievidza 35674148 rebrík Alve 8212 91,76  nie
10116 15.10.2015 FPM, a.s., Milolow 271569520 ND dohrievacieho roštu K 01 48 900,00  nie
10117 15.10.2015 Technik, s.r.o., Zvolen  47531711 žľabový systém PZ 150 107,98  nie
10118 15.10.2015 Pneu Comp, s.r.o., Zvolen  36527696 pneumatiky, prezutie pneumatík 490,00  nie
10119 15.10.2015 Elektrik Group, s.r.o., Kováčová 36745090 OP  a OS elektrickej inštalácie 2 200,00  nie
10120 15.10.2015 Osko, a.s., Ban.Bystrica 36044717 elektroinštalčný materiál  343,22  nie
10121 15.10.2015 PKS Elektro, s.r.o., B.Bystrica 43890164 OP a OS elektrickej inštalácie 2 020,00  nie
10122 15.10.2015 Slov.elektrotech.zväz,Bratislava 30778603 odborná publikácia 25,00  nie
10123 16.10.2015 Elektrik Group, s.r.o., Kováčová 36745090 OP a OS elektrickej inštalácie 1 700,00  nie
10124 16.10.2015 E.Kubinec, Praktik Zvolen  33299153 ventil radiátorový 14,84  nie
10125 16.10.2015 Autokodus, s.r.o., Zvolen  36530751 zmes do chladičov, ostrekovačov 160,20  nie
10126 16.10.2015 BVH, s.r.o., Prievidza 35674148 OCHPP 1 630,17  áno
10127 19.10.2015 Drucker, s.r.o., Čadca 44925417 jednotka optická  124,20  nie
10128 20.10.2015 DOSS, s.r.o., Žilina 31559182 revízia filtrač.-ventilačného zariad. 750,00  nie
10129 20.10.2015 Sabko, s.r.o., Zvolen  44493002 ložisko 21,30  nie
10130 21.10.2015 EPO Zvolen, s.r.o., 652598 oprava elektromotora 451,00  nie
10131 21.10.2015 EPO Zvolen, s.r.o., 652598 oprava ponorného čerpadla 1 280,00  nie
10132 21.10.2015 NCH Slovakia, s.r.o., Bratislava 34096043 mazivo plastickéh K Nate 452,00  nie
10133 21.10.2015 Osko, a.s., Ban.Bystrica 36044717 stykač 44,40  nie
10134 21.10.2015 Sigma Slovakia, s.r.o., B.Bystrica 36527980 ND na čerpadlo  1 029,85  nie
10135 21.10.2015 Elmark Plus, s.r.o.,Šaľa 46331662 oprava frekvenčného meniča 870,00  nie
10136 21.10.2015 Autokodus, s.r.o., Zvolen  36530751 výmena silenblokov 150,00  nie
10137 21.10.2015 Okay Slovakia, s.r.o., Bratislava 35825979 fotoaparáty s príslušenstvom 100,00  nie
10138 21.10.2015 Tech.skúšobný ústav, a.s. Piešť. 57380 opakované úradné skúšky 1 080,00  nie
10139 21.10.2015 Duslo, a.s., Šaľa 35826487 odstránenie netesnosti 1 321,00  nie
10140 23.10.2015 PPA Trade, s.r.o.,Bratislava 31409776 zirkoniové čidlo  3 200,00  nie
10141 23.10.2015 Autokous, s.r.o., Zvolen  36530751 Olej Rimula, oprava automobilu 140,00  nie
10142 26.10.2015 Slov.inovač.a energ.agen. BB 2801 overenie hospodárnosti sústav 1 113,06  nie
10143 26.10.2015 Fittich, s.r.o., Ban.Bystrica 46849891 preškolenie pracovníkov SBS 150,00  nie
10144 26.10.2015 Roexim, s.r.o., Zvolen  46472878 spojovací materiál 33,00  nie
10145 26.10.2015 SEPO, s.r.o., Zvolen.Slatina 31605931 skrinka na has. Príst, háčiky na has.p. 517,36  nie
10146 26.10.2015 Florián Uni, J. Balažko, Budča 33292787 kalibrácia alkotesteru 50,00  nie
10147 27.10.2015 Elez-Elza, Trenčín 11749512 odborná literatúra STN 109,73  nie
10148 27.10.2015 Konica Minolta, s.r.o., Bratislava 31338551 obhliadka kopírovacie stroja 50,00  nie
10149 27.10.2015 Elmark, s.r.o., Šaľa 46331662 diagnostika a nastav. Frekvenč.men. 386,00  nie
10150 27.10.2015 Osko, a.s., Ban.Bystrica 36044717 elektroinštalčný materiál  438,05  nie
10151 29.10.2015 PPA Trade, s.r.o.,Bratislava 31409776 kábel k analyzátoru O2 382,00  nie
10152 30.11.2015 EPO Zvolen, s.r.o., 652598 oprava elektromotora 781,10  nie